Regional Weather Roundup
Issued by NWS Grand Forks, ND

Home | Current Version | Previous Version | Graphics & Text | Print | Product List | Glossary On
Versions: 1 2 3 4 5 6 7 8 9 10 11 12 13 14 15 16 17 18 19 20 21 22 23 24 25 26 27 28 29 30 31 32 33 34 35 36 37 38 39 40 41 42 43 44 45 46 47 48 49 50
000
ASUS43 KFGF 221110
RWRFGF
PRAIRIE TO PINES  WEATHER ROUNDUP
NATIONAL WEATHER SERVICE EASTERN NORTH DAKOTA/GRAND FORKS ND
600 AM CDT WED OCT 22 2014

 **SATELLITE DATA USED TO AUGMENT SKY COVER AT AUTOMATED STATIONS**
 *****  WEATHER ACROSS EASTERN NORTH DAKOTA  *****

CITY           SKY/WX    TMP DP  RH WIND       PRES   REMARKS
GRAND FORKS    FAIR      55  42  61 S20G29    29.81R
GRAND FRKS AFB MOCLDY    55  42  62 S21G31    29.79S
GRAND FRKS NWS   N/A     52 N/A N/A S15         N/A
DEVILS LAKE    CLOUDY    55  41  58 SE15      29.70S
FARGO          PTCLDY    56  41  57 SE28G39   29.86S
WAHPETON ARPT  SUNNY     50  37  62 SE22G30   29.90S
$$

 ***** WEATHER ACROSS CENTRAL AND WESTERN NORTH DAKOTA  *****

CITY           SKY/WX    TMP DP  RH WIND       PRES   REMARKS
BISMARCK       PTCLDY    55  48  77 W7        29.73R
MINOT          PTCLDY    56  44  64 SW10      29.66R
JAMESTOWN      PTCLDY    57  40  52 S15G24    29.76S
MINOT AFB      PTCLDY    52  46  79 W10       29.66R
GARRISON         N/A     53  46  77 W15       29.70R
WILLISTON      PTCLDY    51  45  79 W16       29.75R
DICKINSON      CLOUDY    51  45  79 W22G30    29.79R
HETTINGER      MOCLDY    50  44  80 W18       29.85R
$$

 *****  OTHER AIRPORT OBSERVATIONS IN OUR AREA  *****

CITY           SKY/WX    TMP DP  RH WIND       PRES   REMARKS
WALHALLA         N/A     54  41  62 S14G24    29.74R
GRAFTON AIRPOR FAIR      54  41  62 S20       29.79R
VALLEY CITY AR FAIR      54  41  62 S16       29.80S
CANDO          FAIR      55  45  67 S13       29.69S
CAVALIER APRT  FAIR      54  41  62 S18G25    29.76R
GWINNER        SUNNY     54  41  62 S12       29.84F
ROLLA          FAIR      54  45  71 S16G22    29.66F
 ***** THE ABOVE OBSERVATIONS ARE NON NWS ARE NOT QUALITY
       CONTROLLED AND MAY MIS-REPORT RAIN FOR SNOW...
$$

  *****  WEATHER ACROSS NORTHERN MINNESOTA  *****

CITY           SKY/WX    TMP DP  RH WIND       PRES   REMARKS
FLAG ISLAND    CLEAR     46  41  81 S25       29.91F
WARROAD        CLEAR     48  43  81 S12       29.91F
ROSEAU         CLEAR     50  41  71 S17       29.88F
HALLOCK        PTCLDY    55  43  62 S23G32    29.81R
THF RVR FALLS  CLEAR     54  39  58 SE15G23   29.88S
BAUDETTE       CLEAR     43  37  79 SE8       29.97F
WASKISH        CLEAR     45  39  81 SE13      29.99F
CROOKSTON      PTCLDY    55  43  62 S29G37    29.85S
STEPHEN NDAWN    N/A     55  43  62 S22         N/A
GREENBUSH NDAW   N/A     52  41  66 S20         N/A
$$
  *****  WEATHER ACROSS CENTRAL AND WEST MINNESOTA  *****

CITY           SKY/WX    TMP DP  RH WIND       PRES   REMARKS
FOSSTON        CLEAR     48  37  66 SE15G21   29.92S
BEMIDJI        CLEAR     44  38  80 SE10      30.01S
PARK RAPIDS    CLEAR     45  38  76 SE20      30.02F
ELBOW LAKE     FAIR      49  40  72 SE23G31   29.95F
WADENA         CLEAR     45  37  76 SE14G21   30.02F
DETROIT LAKES  PTCLDY    50  41  71 SE17G24   29.96S
MOORHEAD       PTCLDY    54  45  71 SE24G30   29.88S
FERGUS FALLS   CLEAR     52  37  58 S24G30    29.96S
MORRIS MN      PTCLDY    48  41  76 SE20G29   29.98S
STAPLES        CLEAR     43  37  81 SE10G18   30.06F
$$
  *****  WEATHER ELSEWHERE ACROSS MINNESOTA  *****

CITY           SKY/WX    TMP DP  RH WIND       PRES   REMARKS
DULUTH         CLEAR     39  34  82 S9        30.20R
INTRNTL FALLS  CLEAR     42  36  79 SE9       30.06S
ELY            CLEAR     39  36  87 S8        30.18R
CLOQUET        CLEAR     36  34  93 E3        30.19R
WHEATON        CLEAR     50  41  71 SE24G31   29.91F
BRAINERD       PTCLDY    42  37  82 S10G20    30.11S
HIBBING        CLEAR     36  32  85 SE7       30.16S
ALEXANDRIA     CLEAR     47  39  74 SE17G25   30.04F
SAINT CLOUD    PTCLDY    44  37  76 SE9       30.15R
MINNEAPOLIS    CLEAR     40  35  83 SE8       30.21S
$$

  *****  WEATHER ACROSS SOUTH DAKOTA  *****

CITY           SKY/WX    TMP DP  RH WIND       PRES   REMARKS
SIOUX FALLS    PTCLDY    54  44  69 S16G28    30.00S
BROOKINGS      NOT AVBL
WATERTOWN      CLEAR     52  42  69 S23G31    29.90F
HURON          CLEAR     56  41  57 S16G25    29.86S
SISSETON         N/A     51  43  74 S18G26    29.88S
ABERDEEN       CLEAR     59  42  53 S18G28    29.82R
MITCHELL       CLEAR     55  42  61 SE21      29.90S
PIERRE         PTCLDY    55  51  86 SE10      29.77S
MOBRIDGE       PTCLDY    57  52  83 SE3       29.74R
RAPID CITY     CLOUDY    56  34  43 NW14      29.90R
$$

  *****  SOME WEATHER IN NEARBY STATES *****

CITY           SKY/WX    TMP DP  RH WIND       PRES   REMARKS
GLASGOW MT     CLOUDY    50  40  68 W15       29.79R
GREAT FALLS MT CLEAR     41  34  76 SW14      29.93S
CHEYENNE WY    PTCLDY    47  36  65 NW6       30.05R
SCOTTSBLUFF NE CLOUDY    53  50  89 CALM      29.95R
OMAHA NE       MOCLDY    55  44  66 SE16      30.11R
DES MOINES IA  PTCLDY    45  38  76 SE9       30.22R
DAVENPORT IA   PTCLDY    35  31  85 E8        30.30S
CHICAGO IL     MOCLDY    45  40  82 N6        30.31R
EAU CLAIRE WI  CLEAR     37  32  82 S8        30.28R
LA CROSSE WI   CLEAR     37  33  85 SE6       30.30R
$$

  *****  SOME NATIONAL WEATHER *****

CITY           SKY/WX    TMP DP  RH WIND       PRES   REMARKS
LA GUARDIA NY  LGT RAIN  56  52  86 N12       29.91R
RALEIGH NC     PTCLDY    50  39  66 NW5       29.96R
ATLANTA GA     CLEAR     47  43  86 NW8       30.05R
NEW ORLEANS LA CLEAR     67  59  75 NE8       30.04R
OKLAHOMA CITY  CLEAR     57  54  89 SE5       30.10R FOG
ALBUQUERQUE NM PTCLDY    55  47  74 S3        30.13R
SALT LAKE CITY FAIR      41  34  76 SE5       30.14R
LOS ANGELES CA CLEAR     62  61  96 NE5       29.88S
BOISE ID       CLEAR     46  37  71 SE14      30.05F
SEATTLE WA     LGT RAIN  56  49  77 S14       29.67F
$$

*** WEATHER ACROSS MANITOBA...SASKATCHEWAN AND ONTARIO ***
                ***ONTARIO***

CITY           SKY/WX    TMP DP  RH WIND       PRES   REMARKS
GERALDTON      PTCLDY    34  32  93 SW9       30.29S
THUNDER BAY    CLEAR     25  23  93 VRB2      30.29R
SIOUX LOOKOUT  PTCLDY    39  36  87 S12G17    30.07F
TORONTO        PTCLDY    37  34  87 N14G22    30.23R
BIG TROUT LK   PTCLDY    39  34  81 S13G21    29.93S
PICKLE LAKE    CLEAR     37  32  81 S14       30.06
DRYDEN         CLEAR     41  37  87 S15G24    30.03F
KENORA         PTCLDY    45  37  76 S15G23    29.94F
$$
                *** MANITOBA***

CITY           SKY/WX    TMP DP  RH WIND       PRES   REMARKS
BRANDON        PTCLDY    52  45  76 S8        29.61R
DAUPHIN        CLEAR     39  36  87 NW3       29.58R
ISLAND LAKE    PTCLDY    45  39  81 SE12      29.76F
PILOT MOUND      N/A     54  43  66 S25G32      N/A
THE PAS        CLOUDY    45  41  87 SE7       29.55F
THOMPSON       CLEAR     36  36 100 S3        29.62S
WINNIPEG       PTCLDY    55  43  62 S31G40    29.75S
LYNN LAKE      CLOUDY    41  39  93 N9        29.59S
CHURCHILL      FOG       37  37 100 NE5       29.65R VSB 1/4
GILLAM         CLEAR     41  37  87 S10       29.67S
$$
                ***SASKATCHEWAN***

CITY           SKY/WX    TMP DP  RH WIND       PRES   REMARKS
ESTEVAN        PTCLDY    52  45  76 SW7       29.66R
KINDERSLEY     CLOUDY    45  41  87 W5        29.74R
LLOYDMINSTER   NOT AVBL
PRINCE ALBERT  MOCLDY    48  45  87 W7        29.64R
REGINA         LGT RAIN  48  43  81 SW7       29.67R
YORKTON        MOCLDY    45  41  87 SW3       29.56R
N. BATTLEFORD  CLOUDY    45  41  87 W7        29.72R
LA RONGE       MOCLDY    46  45  93 CALM      29.65R
SASKATOON      CLOUDY    46  43  87 NW7       29.67R
SWIFT CURRENT  CLOUDY    46  45  93 W15       29.72R
$$
NOTE: THESE ARE AUTOMATED STATIONS WITH LIMITED QUALITY CONTROL
      "FAIR" INDICATES FEW OR NO CLOUDS BELOW 12,000 FEET WITH NO
      SIGNIFICANT WEATHER AND/OR OBSTRUCTIONS TO VISIBILITY.
      SKY/WX - SKY CONDITION AND SIGNIFICANT WEATHER.
      TMP - AIR TEMPERATURE.    DP   - DEWPOINT TEMPERATURE.
      RH  - RELATIVE HUMIDITY.  PRES - PRESSURE.
      HX  - HEAT INDEX.         WCI  - WIND CHILL INDEX.
$



USA.gov is the U.S. government's official web portal to all federal, state and local government web resources and services.